Sidney, NE

9:54 PM MDT on August 31, 2016 (GMT -0600)
Sidney Municipal

Weather History for KSNY - September, 2013

Change the Weather History Date:

Wednesday, September 11, 2013

  Actual Average Record
Temperature  
Mean Temperature 65 °F 66 °F  
Max Temperature 69 °F 81 °F 97 °F (1988)
Min Temperature 61 °F 50 °F 32 °F (1989)
Degree Days  
Heating Degree Days 0 3  
Month to date heating degree days 0 18  
Since 1 July heating degree days 9 29  
Cooling Degree Days 0 3  
Month to date cooling degree days 123 51  
Year to date cooling degree days 886 793  
Growing Degree Days 14 (Base 50)    
Moisture  
Dew Point 59 °F    
Average Humidity 85    
Maximum Humidity 93    
Minimum Humidity 76    
Precipitation  
Precipitation 0.05 in 0.04 in 0.69 in (1973)
Month to date precipitation 0.09 0.58  
Year to date precipitation 8.26 15.74  
Sea Level Pressure  
Sea Level Pressure 30.17 in    
Wind  
Wind Speed 9 mph (ENE)    
Max Wind Speed 15 mph    
Max Gust Speed 20 mph    
Visibility 10 miles    
Events Rain    
T = Trace of Precipitation, MM = Missing Value Source: NWS Daily Summary

Daily Weather History Graph

Daily Weather History Graph

Search for Another Location

Airport or City:

Trip Planner

Search our weather history database for the weather conditions in past years. The results will help you decide how hot, cold, wet, or windy it might be!

Date:

Astronomy

Sep. 11, 2013 Rise Set
Actual Time 6:28 AM MDT 7:07 PM MDT
Civil Twilight 6:00 AM MDT 7:35 PM MDT
Nautical Twilight 5:28 AM MDT 8:07 PM MDT
Astronomical Twilight 4:54 AM MDT 8:41 PM MDT
Moon 1:02 PM MDT (9/11) 11:02 PM MDT (9/11)
Length of Visible Light 13h 34m
Length of Day
12h 38m
Waxing Crescent, 39% of the Moon is Illuminated
Sep 11
Waxing Crescent
Sep 12
First Quarter
Sep 19
Full
Sep 26
Last Quarter
Oct 4
New

Hourly Weather History & Observations

Time (MDT) Temp. Dew Point Humidity Pressure Visibility Wind Dir Wind Speed Gust Speed Precip Events Conditions
12:53 AM 63.0 °F 55.9 °F 78% 30.10 in 10.0 mi ENE 3.5 mph - N/A   Overcast
1:53 AM 62.1 °F 55.9 °F 80% 30.10 in 10.0 mi NNE 5.8 mph - N/A   Scattered Clouds
2:53 AM 62.1 °F 57.0 °F 84% 30.09 in 10.0 mi ENE 6.9 mph - N/A   Mostly Cloudy
3:53 AM 62.1 °F 57.0 °F 84% 30.09 in 10.0 mi ENE 8.1 mph - 0.00 in Rain Light Rain
4:53 AM 61.0 °F 57.9 °F 90% 30.10 in 10.0 mi ENE 8.1 mph - 0.00 in   Partly Cloudy
5:53 AM 61.0 °F 57.0 °F 87% 30.11 in 10.0 mi ENE 8.1 mph - N/A   Mostly Cloudy
6:31 AM 60.8 °F 57.2 °F 88% 30.23 in 10.0 mi East 8.1 mph - N/A   Mostly Cloudy
6:53 AM 61.0 °F 57.9 °F 90% 30.13 in 10.0 mi East 8.1 mph - N/A   Overcast
7:07 AM 60.8 °F 57.2 °F 88% 30.25 in 10.0 mi ENE 8.1 mph - N/A   Mostly Cloudy
7:53 AM 63.0 °F 57.9 °F 84% 30.14 in 10.0 mi East 9.2 mph - N/A   Partly Cloudy
8:53 AM 64.0 °F 59.0 °F 84% 30.15 in 10.0 mi East 9.2 mph - N/A   Mostly Cloudy
9:15 AM 64.4 °F 59.0 °F 83% 30.27 in 10.0 mi East 8.1 mph - N/A   Overcast
9:53 AM 64.9 °F 60.1 °F 84% 30.17 in 10.0 mi East 10.4 mph - 0.00 in   Overcast
10:53 AM 66.9 °F 59.0 °F 76% 30.16 in 10.0 mi ESE 11.5 mph - 0.00 in   Overcast
11:53 AM 66.9 °F 60.1 °F 79% 30.16 in 10.0 mi ESE 11.5 mph - 0.00 in Rain Light Rain
12:27 PM 68.0 °F 60.8 °F 78% 30.27 in 10.0 mi East 10.4 mph - 0.00 in   Overcast
12:53 PM 68.0 °F 60.1 °F 76% 30.15 in 10.0 mi East 12.7 mph - 0.01 in   Overcast
1:06 PM 66.2 °F 60.8 °F 83% 30.26 in 9.0 mi East 11.5 mph - 0.00 in Rain Light Rain
1:53 PM 68.0 °F 60.1 °F 76% 30.15 in 10.0 mi East 15.0 mph - 0.00 in   Overcast
2:53 PM 66.9 °F 60.1 °F 79% 30.15 in 10.0 mi East 9.2 mph - 0.00 in   Overcast
3:53 PM 66.9 °F 62.1 °F 84% 30.14 in 10.0 mi NE 10.4 mph - 0.01 in   Mostly Cloudy
4:53 PM 69.1 °F 63.0 °F 81% 30.14 in 10.0 mi North 10.4 mph - N/A   Mostly Cloudy
5:53 PM 68.0 °F 61.0 °F 78% 30.13 in 10.0 mi NNE 9.2 mph - N/A   Partly Cloudy
6:53 PM 66.9 °F 61.0 °F 81% 30.15 in 10.0 mi NNE 5.8 mph - N/A   Overcast
7:53 PM 66.0 °F 60.1 °F 81% 30.15 in 10.0 mi ENE 6.9 mph - N/A   Overcast
8:53 PM 66.0 °F 59.0 °F 78% 30.17 in 10.0 mi East 8.1 mph - N/A   Overcast
9:53 PM 64.9 °F 60.1 °F 84% 30.17 in 10.0 mi ENE 8.1 mph - N/A   Overcast
10:35 PM 64.4 °F 60.8 °F 88% 30.28 in 10.0 mi East 5.8 mph - 0.01 in Rain Light Rain
10:42 PM 64.4 °F 60.8 °F 88% 30.28 in 10.0 mi East 6.9 mph - 0.01 in Rain Light Rain
10:53 PM 64.0 °F 61.0 °F 90% 30.17 in 10.0 mi ENE 9.2 mph - 0.01 in Rain Light Rain
11:53 PM 64.0 °F 62.1 °F 93% 30.17 in 7.0 mi ENE 9.2 mph - 0.01 in Rain Light Rain